| time (UTC) | temp F | wind direction | speed knots | gust knots | rain 1hr in | rain 24hr in | rain mn in | humidity % | barometer mb |
| 20260510225600 | 80 | 194 | 3.5 | 8.7 | 0.00 | 0.00 | 0.00 | 9 | 1021.5 |
| 20260510225002 | 80 | 307 | 3.5 | 11.3 | 0.00 | 0.00 | 0.00 | 10 | 1021.5 |
| 20260510224606 | 79 | 284 | 1.7 | 12.2 | 0.00 | 0.00 | 0.00 | 10 | 1021.6 |
| 20260510224000 | 79 | 294 | 7.8 | 12.2 | 0.00 | 0.00 | 0.00 | 10 | 1021.6 |
| 20260510223556 | 79 | 288 | 4.3 | 12.2 | 0.00 | 0.00 | 0.00 | 10 | 1021.5 |
| 20260510223107 | 79 | 306 | 5.2 | 14.8 | 0.00 | 0.00 | 0.00 | 9 | 1021.6 |
| 20260510222554 | 79 | 298 | 8.7 | 13.9 | 0.00 | 0.00 | 0.00 | 10 | 1021.5 |
| 20260510222100 | 80 | 311 | 7.0 | 13.9 | 0.00 | 0.00 | 0.00 | 10 | 1021.5 |
| 20260510221507 | 80 | 259 | 5.2 | 10.4 | 0.00 | 0.00 | 0.00 | 10 | 1021.7 |
| 20260510221103 | 79 | 238 | 2.6 | 14.8 | 0.00 | 0.00 | 0.00 | 10 | 1021.7 |
| 20260510220501 | 79 | 284 | 7.0 | 14.8 | 0.00 | 0.00 | 0.00 | 10 | 1021.7 |
| 20260510220059 | 79 | 280 | 7.8 | 14.8 | 0.00 | 0.00 | 0.00 | 10 | 1021.6 |
| 20260510215549 | 79 | 326 | 6.1 | 12.2 | 0.00 | 0.00 | 0.00 | 10 | 1021.7 |
| 20260510215059 | 80 | 284 | 7.0 | 15.6 | 0.00 | 0.00 | 0.00 | 9 | 1021.7 |
| 20260510214553 | 79 | 298 | 3.5 | 15.6 | 0.00 | 0.00 | 0.00 | 10 | 1021.7 |
| 20260510214057 | 79 | 292 | 8.7 | 14.8 | 0.00 | 0.00 | 0.00 | 9 | 1021.8 |
| 20260510213551 | 79 | 232 | 7.0 | 12.2 | 0.00 | 0.00 | 0.00 | 9 | 1021.8 |
| 20260510213059 | 80 | 240 | 5.2 | 14.8 | 0.00 | 0.00 | 0.00 | 10 | 1021.8 |
| 20260510212603 | 80 | 240 | 8.7 | 14.8 | 0.00 | 0.00 | 0.00 | 10 | 1021.9 |
| 20260510212050 | 80 | 304 | 2.6 | 13.0 | 0.00 | 0.00 | 0.00 | 9 | 1021.9 |
| 20260510211603 | 81 | 303 | 7.0 | 13.0 | 0.00 | 0.00 | 0.00 | 10 | 1021.9 |
| 20260510211104 | 80 | 248 | 4.3 | 9.6 | 0.00 | 0.00 | 0.00 | 10 | 1021.9 |
| 20260510210506 | 79 | 215 | 1.7 | 13.9 | 0.00 | 0.00 | 0.00 | 10 | 1021.9 |
| 20260510205504 | 79 | 180 | 4.3 | 13.9 | 0.00 | 0.00 | 0.00 | 9 | 1022.0 |
| 20260510205011 | 78 | 348 | 5.2 | 13.9 | 0.00 | 0.00 | 0.00 | 10 | 1022.0 |
| 20260510204521 | 79 | 332 | 9.6 | 13.0 | 0.00 | 0.00 | 0.00 | 9 | 1022.1 |
| 20260510204025 | 79 | 263 | 7.0 | 12.2 | 0.00 | 0.00 | 0.00 | 10 | 1022.1 |
| 20260510203532 | 79 | 285 | 5.2 | 11.3 | 0.00 | 0.00 | 0.00 | 10 | 1022.0 |
| 20260510203037 | 79 | 261 | 6.1 | 13.9 | 0.00 | 0.00 | 0.00 | 10 | 1022.2 |
| 20260510202545 | 78 | 248 | 1.7 | 13.9 | 0.00 | 0.00 | 0.00 | 10 | 1022.3 |
| 20260510202035 | 78 | 296 | 7.0 | 13.0 | 0.00 | 0.00 | 0.00 | 10 | 1022.1 |
| 20260510201543 | 78 | 340 | 6.1 | 10.4 | 0.00 | 0.00 | 0.00 | 10 | 1022.3 |
| 20260510201050 | 77 | 67 | 4.3 | 11.3 | 0.00 | 0.00 | 0.00 | 10 | 1022.4 |
| 20260510200557 | 77 | 263 | 7.8 | 13.0 | 0.00 | 0.00 | 0.00 | 10 | 1022.4 |
| 20260510200048 | 77 | 302 | 6.1 | 13.0 | 0.00 | 0.00 | 0.00 | 10 | 1022.4 |
| 20260510195556 | 78 | 308 | 6.1 | 13.0 | 0.00 | 0.00 | 0.00 | 10 | 1022.4 |
| 20260510195101 | 78 | 333 | 1.7 | 15.6 | 0.00 | 0.00 | 0.00 | 10 | 1022.2 |
| 20260510194504 | 77 | 300 | 7.8 | 15.6 | 0.00 | 0.00 | 0.00 | 10 | 1022.2 |
| 20260510194102 | 77 | 288 | 7.8 | 13.0 | 0.00 | 0.00 | 0.00 | 10 | 1022.1 |
| 20260510193502 | 77 | 278 | 5.2 | 11.3 | 0.00 | 0.00 | 0.00 | 10 | 1022.2 |
| 20260510193059 | 77 | 313 | 4.3 | 11.3 | 0.00 | 0.00 | 0.00 | 10 | 1022.2 |
| 20260510192548 | 77 | 343 | 5.2 | 12.2 | 0.00 | 0.00 | 0.00 | 10 | 1022.2 |
| 20260510192056 | 76 | 309 | 7.8 | 13.0 | 0.00 | 0.00 | 0.00 | 10 | 1022.2 |
| 20260510191547 | 76 | 22 | 8.7 | 13.0 | 0.00 | 0.00 | 0.00 | 10 | 1022.2 |
| 20260510191055 | 77 | 322 | 7.0 | 10.4 | 0.00 | 0.00 | 0.00 | 9 | 1022.3 |
| 20260510190545 | 77 | 307 | 3.5 | 12.2 | 0.00 | 0.00 | 0.00 | 10 | 1022.3 |
| 20260510190038 | 77 | 230 | 5.2 | 16.5 | 0.00 | 0.00 | 0.00 | 10 | 1022.2 |
| 20260510185544 | 76 | 191 | 6.1 | 16.5 | 0.00 | 0.00 | 0.00 | 11 | 1022.3 |
| 20260510185035 | 76 | 346 | 5.2 | 12.2 | 0.00 | 0.00 | 0.00 | 10 | 1022.5 |
| 20260510184545 | 77 | 171 | 6.1 | 10.4 | 0.00 | 0.00 | 0.00 | 9 | 1022.5 |
| 20260510184048 | 77 | 229 | 1.7 | 6.1 | 0.00 | 0.00 | 0.00 | 10 | 1022.6 |
| 20260510183556 | 76 | 213 | 1.7 | 7.8 | 0.00 | 0.00 | 0.00 | 10 | 1022.6 |
| 20260510183047 | 75 | 312 | 2.6 | 12.2 | 0.00 | 0.00 | 0.00 | 11 | 1022.7 |
| 20260510182554 | 75 | 251 | 5.2 | 12.2 | 0.00 | 0.00 | 0.00 | 10 | 1022.6 |
| 20260510182100 | 75 | 305 | 7.8 | 13.9 | 0.00 | 0.00 | 0.00 | 11 | 1022.7 |
| 20260510181504 | 75 | 316 | 9.6 | 13.9 | 0.00 | 0.00 | 0.00 | 10 | 1022.7 |
| 20260510181100 | 76 | 292 | 6.1 | 11.3 | 0.00 | 0.00 | 0.00 | 10 | 1022.6 |
| 20260510180504 | 77 | 297 | 5.2 | 10.4 | 0.00 | 0.00 | 0.00 | 11 | 1022.6 |
| 20260510180057 | 76 | 223 | 2.6 | 9.6 | 0.00 | 0.00 | 0.00 | 11 | 1022.8 |
| 20260510175544 | 74 | 355 | 2.6 | 9.6 | 0.00 | 0.00 | 0.00 | 11 | 1022.8 |
| 20260510175052 | 75 | 285 | 4.3 | 7.8 | 0.00 | 0.00 | 0.00 | 12 | 1022.9 |
| 20260510174558 | 74 | 19 | 0.9 | 6.1 | 0.00 | 0.00 | 0.00 | 11 | 1022.8 |
| 20260510174002 | 74 | 337 | 1.7 | 6.1 | 0.00 | 0.00 | 0.00 | 12 | 1022.9 |
| 20260510173559 | 73 | 340 | 3.5 | 6.1 | 0.00 | 0.00 | 0.00 | 13 | 1022.9 |
| 20260510173105 | 73 | 109 | 1.7 | 3.5 | 0.00 | 0.00 | 0.00 | 13 | 1022.9 |
| 20260510172556 | 73 | 103 | 0.9 | 5.2 | 0.00 | 0.00 | 0.00 | 13 | 1022.8 |
| 20260510172048 | 72 | 288 | 1.7 | 5.2 | 0.00 | 0.00 | 0.00 | 13 | 1022.9 |
| 20260510171601 | 72 | 113 | 1.7 | 7.0 | 0.00 | 0.00 | 0.00 | 14 | 1022.9 |
| 20260510171045 | 71 | 215 | 2.6 | 7.0 | 0.00 | 0.00 | 0.00 | 14 | 1023.1 |
| 20260510170553 | 70 | 230 | 1.7 | 6.1 | 0.00 | 0.00 | 0.00 | 14 | 1023.0 |
| 20260510170106 | 70 | 309 | 0.9 | 6.1 | 0.00 | 0.00 | 0.00 | 14 | 1023.1 |
| 20260510165533 | 69 | 227 | 0.9 | 4.3 | 0.00 | 0.00 | 0.00 | 14 | 1023.1 |
| 20260510165044 | 69 | 251 | 1.7 | 4.3 | 0.00 | 0.00 | 0.00 | 15 | 1023.1 |
| 20260510164600 | 69 | 304 | 0.0 | 4.3 | 0.00 | 0.00 | 0.00 | 14 | 1023.0 |
| 20260510164057 | 69 | 225 | 1.7 | 6.1 | 0.00 | 0.00 | 0.00 | 15 | 1023.0 |
| 20260510163547 | 68 | 211 | 3.5 | 7.0 | 0.00 | 0.00 | 0.00 | 15 | 1023.0 |
| 20260510163054 | 68 | 199 | 4.3 | 7.0 | 0.00 | 0.00 | 0.00 | 15 | 1023.0 |
| 20260510162559 | 67 | 225 | 3.5 | 6.1 | 0.00 | 0.00 | 0.00 | 15 | 1023.0 |
| 20260510162002 | 66 | 327 | 0.9 | 7.0 | 0.00 | 0.00 | 0.00 | 15 | 1022.9 |
| 20260510161559 | 67 | 284 | 2.6 | 7.0 | 0.00 | 0.00 | 0.00 | 15 | 1022.8 |
| 20260510161002 | 67 | 219 | 1.7 | 5.2 | 0.00 | 0.00 | 0.00 | 16 | 1022.9 |
| 20260510160557 | 66 | 279 | 0.9 | 5.2 | 0.00 | 0.00 | 0.00 | 16 | 1022.9 |
| 20260510160105 | 66 | 190 | 2.6 | 5.2 | 0.00 | 0.00 | 0.00 | 16 | 1022.9 |
| 20260510155555 | 65 | 175 | 0.9 | 4.3 | 0.00 | 0.00 | 0.00 | 16 | 1022.8 |
| 20260510155046 | 65 | 280 | 1.7 | 4.3 | 0.00 | 0.00 | 0.00 | 17 | 1022.9 |
| 20260510154557 | 64 | 281 | 1.7 | 4.3 | 0.00 | 0.00 | 0.00 | 17 | 1022.9 |
| 20260510154044 | 64 | 257 | 0.9 | 4.3 | 0.00 | 0.00 | 0.00 | 17 | 1022.8 |
| 20260510153535 | 63 | 290 | 0.9 | 3.5 | 0.00 | 0.00 | 0.00 | 16 | 1022.7 |
| 20260510153050 | 62 | 248 | 0.9 | 2.6 | 0.00 | 0.00 | 0.00 | 17 | 1022.8 |
| 20260510152548 | 62 | 246 | 0.9 | 4.3 | 0.00 | 0.00 | 0.00 | 17 | 1022.8 |
| 20260510152055 | 61 | 265 | 1.7 | 3.5 | 0.00 | 0.00 | 0.00 | 18 | 1022.8 |
| 20260510151547 | 61 | 259 | 0.9 | 3.5 | 0.00 | 0.00 | 0.00 | 18 | 1022.8 |
| 20260510151055 | 61 | 229 | 0.9 | 3.5 | 0.00 | 0.00 | 0.00 | 18 | 1022.8 |
| 20260510150600 | 61 | 288 | 0.9 | 3.5 | 0.00 | 0.00 | 0.00 | 19 | 1022.8 |
| 20260510150004 | 61 | 225 | 1.7 | 5.2 | 0.00 | 0.00 | 0.00 | 20 | 1022.8 |
| 20260510145603 | 60 | 198 | 0.9 | 5.2 | 0.00 | 0.00 | 0.00 | 20 | 1022.8 |
| 20260510145002 | 60 | 273 | 1.7 | 4.3 | 0.00 | 0.00 | 0.00 | 20 | 1022.8 |
| 20260510144558 | 60 | 171 | 1.7 | 4.3 | 0.00 | 0.00 | 0.00 | 20 | 1022.8 |
| 20260510144002 | 59 | 232 | 0.9 | 2.6 | 0.00 | 0.00 | 0.00 | 20 | 1022.6 |
| 20260510143556 | 59 | 227 | 1.7 | 3.5 | 0.00 | 0.00 | 0.00 | 20 | 1022.6 |
| 20260510143048 | 58 | 286 | 0.9 | 3.5 | 0.00 | 0.00 | 0.00 | 21 | 1022.6 |
| 20260510142555 | 58 | 227 | 0.9 | 3.5 | 0.00 | 0.00 | 0.00 | 23 | 1022.6 |
| 20260510142047 | 57 | 237 | 0.9 | 4.3 | 0.00 | 0.00 | 0.00 | 25 | 1022.5 |
| 20260510141554 | 57 | 207 | 0.9 | 4.3 | 0.00 | 0.00 | 0.00 | 26 | 1022.5 |
| 20260510141102 | 56 | 228 | 1.7 | 4.3 | 0.00 | 0.00 | 0.00 | 25 | 1022.5 |
| 20260510140501 | 56 | 183 | 0.9 | 3.5 | 0.00 | 0.00 | 0.00 | 28 | 1022.3 |
| 20260510140001 | 55 | 172 | 0.9 | 3.5 | 0.00 | 0.00 | 0.00 | 27 | 1022.4 |
| 20260510135509 | 55 | 166 | 0.9 | 2.6 | 0.00 | 0.00 | 0.00 | 30 | 1022.3 |
| 20260510135108 | 55 | 121 | 0.9 | 2.6 | 0.00 | 0.00 | 0.00 | 31 | 1022.4 |
| 20260510134508 | 54 | 123 | 0.9 | 2.6 | 0.00 | 0.00 | 0.00 | 31 | 1022.3 |
| 20260510134102 | 54 | 209 | 0.9 | 3.5 | 0.00 | 0.00 | 0.00 | 30 | 1022.2 |
| 20260510133505 | 53 | 227 | 0.0 | 5.2 | 0.00 | 0.00 | 0.00 | 31 | 1022.1 |
| 20260510133101 | 53 | 206 | 1.7 | 4.3 | 0.00 | 0.00 | 0.00 | 30 | 1022.0 |
| 20260510132504 | 52 | 189 | 1.7 | 4.3 | 0.00 | 0.00 | 0.00 | 29 | 1021.9 |
| 20260510132011 | 52 | 107 | 0.9 | 1.7 | 0.00 | 0.00 | 0.00 | 32 | 1021.8 |
| 20260510131501 | 51 | 107 | 0.0 | 1.7 | 0.00 | 0.00 | 0.00 | 33 | 1021.7 |
| 20260510131008 | 51 | 107 | 0.9 | 1.7 | 0.00 | 0.00 | 0.00 | 34 | 1021.8 |
| 20260510130604 | 50 | 107 | 0.9 | 2.6 | 0.00 | 0.00 | 0.00 | 34 | 1021.7 |
| 20260510130018 | 50 | 107 | 1.7 | 2.6 | 0.00 | 0.00 | 0.00 | 34 | 1021.7 |
| 20260510125604 | 50 | 98 | 0.9 | 2.6 | 0.00 | 0.00 | 0.00 | 35 | 1021.7 |
| 20260510125054 | 49 | 109 | 1.7 | 2.6 | 0.00 | 0.00 | 0.00 | 35 | 1021.6 |
| 20260510124612 | 48 | 102 | 1.7 | 2.6 | 0.00 | 0.00 | 0.00 | 36 | 1021.7 |
| 20260510124108 | 48 | 102 | 1.7 | 2.6 | 0.00 | 0.00 | 0.00 | 36 | 1021.5 |
| 20260510123507 | 47 | 96 | 0.9 | 2.6 | 0.00 | 0.00 | 0.00 | 36 | 1021.5 |
| 20260510123103 | 47 | 106 | 1.7 | 2.6 | 0.00 | 0.00 | 0.00 | 37 | 1021.4 |
| 20260510122506 | 47 | 98 | 1.7 | 2.6 | 0.00 | 0.00 | 0.00 | 38 | 1021.5 |
| 20260510122101 | 47 | 98 | 1.7 | 2.6 | 0.00 | 0.00 | 0.00 | 38 | 1021.3 |
| 20260510121504 | 47 | 98 | 1.7 | 3.5 | 0.00 | 0.00 | 0.00 | 37 | 1021.4 |
| 20260510121100 | 47 | 98 | 1.7 | 5.2 | 0.00 | 0.00 | 0.00 | 37 | 1021.3 |
| 20260510120550 | 48 | 107 | 2.6 | 5.2 | 0.00 | 0.00 | 0.00 | 35 | 1021.2 |
| 20260510120058 | 48 | 113 | 0.9 | 2.6 | 0.00 | 0.00 | 0.00 | 31 | 1021.2 |
| 20260510115605 | 48 | 113 | 1.7 | 3.5 | 0.00 | 0.00 | 0.00 | 28 | 1021.0 |
| 20260510115008 | 49 | 61 | 0.0 | 1.7 | 0.00 | 0.00 | 0.00 | 24 | 1021.1 |
| 20260510114609 | 49 | 61 | 0.0 | 1.7 | 0.00 | 0.00 | 0.00 | 24 | 1021.0 |
| 20260510114007 | 49 | 61 | 0.0 | 1.7 | 0.00 | 0.00 | 0.00 | 24 | 1020.8 |
| 20260510113601 | 50 | 61 | 0.9 | 1.7 | 0.00 | 0.00 | 0.00 | 24 | 1020.8 |
| 20260510113005 | 50 | 129 | 0.0 | 1.7 | 0.00 | 0.00 | 0.00 | 25 | 1020.8 |
| 20260510112600 | 50 | 129 | 0.0 | 2.6 | 0.00 | 0.00 | 0.00 | 27 | 1020.9 |
| 20260510112051 | 50 | 129 | 0.9 | 3.5 | 0.00 | 0.00 | 0.00 | 27 | 1020.8 |
| 20260510111559 | 50 | 113 | 1.7 | 3.5 | 0.00 | 0.00 | 0.00 | 23 | 1020.7 |
| 20260510111049 | 51 | 113 | 0.9 | 2.6 | 0.00 | 0.00 | 0.00 | 23 | 1020.6 |
| 20260510110541 | 51 | 53 | 1.7 | 3.5 | 0.00 | 0.00 | 0.00 | 23 | 1020.6 |
| 20260510110049 | 51 | 77 | 0.9 | 5.2 | 0.00 | 0.00 | 0.00 | 23 | 1020.5 |
| 20260510105540 | 51 | 123 | 1.7 | 3.5 | 0.00 | 0.00 | 0.00 | 23 | 1020.6 |
| 20260510105048 | 51 | 84 | 1.7 | 4.3 | 0.00 | 0.00 | 0.00 | 23 | 1020.6 |
| 20260510104558 | 51 | 57 | 2.6 | 4.3 | 0.00 | 0.00 | 0.00 | 23 | 1020.6 |
| 20260510104100 | 51 | 46 | 1.7 | 2.6 | 0.00 | 0.00 | 0.00 | 24 | 1020.5 |
| 20260510103551 | 51 | 67 | 0.0 | 1.7 | 0.00 | 0.00 | 0.00 | 24 | 1020.4 |
| 20260510103059 | 51 | 99 | 0.0 | 1.7 | 0.00 | 0.00 | 0.00 | 24 | 1020.3 |
| 20260510102605 | 51 | 55 | 0.0 | 1.7 | 0.00 | 0.00 | 0.00 | 24 | 1020.3 |
| 20260510102012 | 51 | 55 | 0.9 | 3.5 | 0.00 | 0.00 | 0.00 | 24 | 1020.1 |
| 20260510101603 | 51 | 63 | 0.9 | 3.5 | 0.00 | 0.00 | 0.00 | 24 | 1020.1 |
| 20260510101005 | 51 | 48 | 1.7 | 3.5 | 0.00 | 0.00 | 0.00 | 26 | 1020.1 |
| 20260510100517 | 51 | 36 | 1.7 | 3.5 | 0.00 | 0.00 | 0.00 | 26 | 1020.2 |
| 20260510100105 | 50 | 41 | 1.7 | 2.6 | 0.00 | 0.00 | 0.00 | 26 | 1020.1 |
| 20260510095511 | 50 | 42 | 0.9 | 3.5 | 0.00 | 0.00 | 0.00 | 27 | 1020.1 |
| 20260510095103 | 50 | 36 | 1.7 | 3.5 | 0.00 | 0.00 | 0.00 | 28 | 1020.1 |
| 20260510094508 | 49 | 38 | 0.9 | 2.6 | 0.00 | 0.00 | 0.00 | 28 | 1020.0 |
| 20260510094105 | 49 | 30 | 0.9 | 2.6 | 0.00 | 0.00 | 0.00 | 29 | 1019.9 |
| 20260510093503 | 49 | 340 | 0.9 | 1.7 | 0.00 | 0.00 | 0.00 | 30 | 1019.9 |
| 20260510093011 | 49 | 340 | 0.0 | 1.7 | 0.00 | 0.00 | 0.00 | 30 | 1019.8 |
| 20260510092504 | 49 | 340 | 0.9 | 1.7 | 0.00 | 0.00 | 0.00 | 31 | 1019.8 |
| 20260510092012 | 49 | 340 | 0.9 | 1.7 | 0.00 | 0.00 | 0.00 | 32 | 1019.8 |
| 20260510091605 | 49 | 340 | 0.9 | 1.7 | 0.00 | 0.00 | 0.00 | 32 | 1019.7 |
| 20260510091010 | 50 | 322 | 0.0 | 1.7 | 0.00 | 0.00 | 0.00 | 33 | 1019.7 |
| 20260510090604 | 50 | 322 | 0.9 | 1.7 | 0.00 | 0.00 | 0.00 | 33 | 1019.8 |
| 20260510090054 | 50 | 327 | 0.9 | 3.5 | 0.00 | 0.00 | 0.00 | 33 | 1019.8 |
| 20260510085604 | 51 | 344 | 0.9 | 4.3 | 0.00 | 0.00 | 0.00 | 32 | 1019.7 |
| 20260510085001 | 51 | 355 | 1.7 | 5.2 | 0.00 | 0.00 | 0.00 | 32 | 1019.9 |
| 20260510084511 | 52 | 288 | 0.9 | 5.2 | 0.00 | 0.00 | 0.00 | 31 | 1019.7 |
| 20260510084106 | 53 | 266 | 1.7 | 4.3 | 0.00 | 0.00 | 0.00 | 30 | 1019.8 |
| 20260510083508 | 53 | 317 | 1.7 | 4.3 | 0.00 | 0.00 | 0.00 | 28 | 1019.6 |
| 20260510083108 | 54 | 338 | 1.7 | 4.3 | 0.00 | 0.00 | 0.00 | 28 | 1019.6 |
| 20260510082508 | 54 | 340 | 1.7 | 4.3 | 0.00 | 0.00 | 0.00 | 28 | 1019.6 |
| 20260510082103 | 54 | 360 | 2.6 | 5.2 | 0.00 | 0.00 | 0.00 | 28 | 1019.6 |
| 20260510081552 | 55 | 315 | 2.6 | 5.2 | 0.00 | 0.00 | 0.00 | 28 | 1019.7 |
| 20260510081100 | 55 | 24 | 3.5 | 6.1 | 0.00 | 0.00 | 0.00 | 28 | 1019.6 |
| 20260510080606 | 55 | 5 | 3.5 | 5.2 | 0.00 | 0.00 | 0.00 | 28 | 1019.6 |
| 20260510080006 | 55 | 16 | 3.5 | 7.0 | 0.00 | 0.00 | 0.00 | 28 | 1019.7 |
| 20260510075601 | 54 | 17 | 3.5 | 7.0 | 0.00 | 0.00 | 0.00 | 28 | 1019.7 |
| 20260510075004 | 54 | 19 | 1.7 | 4.3 | 0.00 | 0.00 | 0.00 | 29 | 1019.6 |
| 20260510074600 | 54 | 360 | 1.7 | 5.2 | 0.00 | 0.00 | 0.00 | 29 | 1019.6 |
| 20260510074106 | 54 | 13 | 2.6 | 5.2 | 0.00 | 0.00 | 0.00 | 29 | 1019.6 |
| 20260510073507 | 55 | 11 | 1.7 | 4.3 | 0.00 | 0.00 | 0.00 | 30 | 1019.6 |
| 20260510073114 | 55 | 355 | 1.7 | 3.5 | 0.00 | 0.00 | 0.00 | 30 | 1019.7 |
| 20260510072503 | 56 | 350 | 1.7 | 3.5 | 0.00 | 0.00 | 0.00 | 30 | 1019.6 |
| 20260510072101 | 56 | 312 | 1.7 | 3.5 | 0.00 | 0.00 | 0.00 | 30 | 1019.8 |
| 20260510071549 | 56 | 315 | 1.7 | 3.5 | 0.00 | 0.00 | 0.00 | 30 | 1019.7 |
| 20260510071056 | 56 | 320 | 1.7 | 5.2 | 0.00 | 0.00 | 0.00 | 29 | 1019.7 |
| 20260510070547 | 57 | 25 | 2.6 | 5.2 | 0.00 | 0.00 | 0.00 | 29 | 1019.7 |
| 20260510070056 | 57 | 344 | 2.6 | 5.2 | 0.00 | 0.00 | 0.00 | 29 | 1019.7 |
| 20260510065548 | 58 | 350 | 2.6 | 4.3 | 0.00 | 0.00 | 0.00 | 29 | 1019.6 |
| 20260510065036 | 58 | 14 | 2.6 | 3.5 | 0.00 | 0.00 | 0.00 | 28 | 1019.5 |
| 20260510064542 | 58 | 332 | 1.7 | 4.3 | 0.00 | 0.00 | 0.00 | 28 | 1019.4 |
| 20260510064048 | 59 | 329 | 1.7 | 4.3 | 0.00 | 0.00 | 0.00 | 28 | 1019.3 |
| 20260510063555 | 59 | 351 | 2.6 | 7.0 | 0.00 | 0.00 | 0.00 | 28 | 1019.3 |
| 20260510063050 | 60 | 348 | 2.6 | 7.0 | 0.00 | 0.00 | 0.00 | 27 | 1019.2 |
| 20260510062554 | 60 | 333 | 2.6 | 5.2 | 0.00 | 0.00 | 0.00 | 27 | 1019.1 |
| 20260510062059 | 61 | 345 | 2.6 | 7.0 | 0.00 | 0.00 | 0.00 | 27 | 1019.1 |
| 20260510061508 | 61 | 346 | 3.5 | 7.8 | 0.00 | 0.00 | 0.00 | 26 | 1019.0 |
| 20260510061058 | 61 | 360 | 3.5 | 7.8 | 0.00 | 0.00 | 0.00 | 26 | 1018.9 |
| 20260510060605 | 62 | 345 | 2.6 | 8.7 | 0.00 | 0.00 | 0.00 | 25 | 1018.9 |
| 20260510060055 | 62 | 5 | 3.5 | 8.7 | 0.00 | 0.00 | 0.00 | 25 | 1018.8 |
| 20260510055600 | 63 | 12 | 4.3 | 9.6 | 0.00 | 0.00 | 0.00 | 24 | 1018.9 |
| 20260510055001 | 64 | 15 | 7.0 | 9.6 | 0.00 | 0.00 | 0.00 | 24 | 1018.9 |
| 20260510054509 | 65 | 22 | 2.6 | 5.2 | 0.00 | 0.00 | 0.00 | 23 | 1018.8 |
| 20260510054105 | 65 | 19 | 2.6 | 5.2 | 0.00 | 0.00 | 0.00 | 23 | 1018.8 |
| 20260510053508 | 66 | 338 | 1.7 | 3.5 | 0.00 | 0.00 | 0.00 | 22 | 1018.8 |
| 20260510053103 | 67 | 324 | 1.7 | 3.5 | 0.00 | 0.00 | 0.00 | 22 | 1018.8 |
| 20260510052504 | 67 | 306 | 1.7 | 3.5 | 0.00 | 0.00 | 0.00 | 22 | 1018.8 |
| 20260510052011 | 68 | 278 | 0.9 | 2.6 | 0.00 | 0.00 | 0.00 | 22 | 1018.7 |
| 20260510051506 | 68 | 242 | 0.9 | 2.6 | 0.00 | 0.00 | 0.00 | 21 | 1018.7 |
| 20260510051011 | 68 | 256 | 0.0 | 1.7 | 0.00 | 0.00 | 0.00 | 21 | 1018.7 |
| 20260510050603 | 68 | 242 | 0.0 | 2.6 | 0.00 | 0.00 | 0.00 | 21 | 1018.8 |
| 20260510050005 | 68 | 229 | 0.9 | 2.6 | 0.00 | 0.00 | 0.00 | 21 | 1018.8 |
| 20260510045519 | 68 | 277 | 0.0 | 4.3 | 0.00 | 0.00 | 0.00 | 21 | 1018.8 |
| 20260510045018 | 68 | 240 | 0.0 | 4.3 | 0.00 | 0.00 | 0.00 | 20 | 1018.8 |
| 20260510044524 | 68 | 223 | 0.9 | 4.3 | 0.00 | 0.00 | 0.00 | 20 | 1018.7 |
| 20260510044028 | 69 | 229 | 1.7 | 4.3 | 0.00 | 0.00 | 0.00 | 20 | 1018.8 |
| 20260510043537 | 69 | 224 | 0.9 | 7.0 | 0.00 | 0.00 | 0.00 | 20 | 1018.7 |
| 20260510043043 | 69 | 196 | 1.7 | 7.0 | 0.00 | 0.00 | 0.00 | 20 | 1018.8 |
| 20260510042550 | 69 | 225 | 1.7 | 6.1 | 0.00 | 0.00 | 0.00 | 20 | 1018.7 |
| 20260510042041 | 69 | 208 | 2.6 | 7.0 | 0.00 | 0.00 | 0.00 | 20 | 1018.9 |
| 20260510041551 | 70 | 209 | 0.9 | 7.0 | 0.00 | 0.00 | 0.00 | 20 | 1018.9 |
| 20260510041056 | 70 | 265 | 2.6 | 7.0 | 0.00 | 0.00 | 0.00 | 20 | 1018.7 |
| 20260510040605 | 70 | 254 | 1.7 | 8.7 | 0.00 | 0.00 | 0.00 | 19 | 1018.7 |
| 20260510040004 | 70 | 213 | 2.6 | 8.7 | 0.00 | 0.00 | 0.00 | 19 | 1018.8 |
| 20260510035511 | 70 | 290 | 3.5 | 8.7 | 0.00 | 0.00 | 0.00 | 19 | 1018.8 |
| 20260510035002 | 70 | 295 | 2.6 | 4.3 | 0.00 | 0.00 | 0.00 | 20 | 1018.7 |
| 20260510034559 | 70 | 292 | 2.6 | 7.0 | 0.00 | 0.00 | 0.00 | 20 | 1018.8 |
| 20260510034106 | 70 | 290 | 2.6 | 8.7 | 0.00 | 0.00 | 0.00 | 20 | 1018.7 |
| 20260510033508 | 70 | 259 | 2.6 | 7.0 | 0.00 | 0.00 | 0.00 | 20 | 1018.7 |
| 20260510033020 | 71 | 222 | 0.9 | 10.4 | 0.00 | 0.00 | 0.00 | 20 | 1018.7 |
| 20260510032521 | 71 | 255 | 4.3 | 10.4 | 0.00 | 0.00 | 0.00 | 20 | 1018.7 |
| 20260510032026 | 71 | 236 | 4.3 | 15.6 | 0.00 | 0.00 | 0.00 | 20 | 1018.8 |
| 20260510031531 | 71 | 259 | 5.2 | 17.4 | 0.00 | 0.00 | 0.00 | 20 | 1018.8 |
| 20260510031039 | 71 | 264 | 7.0 | 16.5 | 0.00 | 0.00 | 0.00 | 19 | 1018.9 |
| 20260510030545 | 71 | 315 | 8.7 | 16.5 | 0.00 | 0.00 | 0.00 | 19 | 1018.9 |
| 20260510030053 | 71 | 286 | 8.7 | 20.9 | 0.00 | 0.00 | 0.00 | 19 | 1018.8 |
| 20260510025544 | 71 | 321 | 12.2 | 20.9 | 0.00 | 0.00 | 0.00 | 18 | 1018.7 |
| 20260510025052 | 71 | 322 | 9.6 | 16.5 | 0.00 | 0.00 | 0.00 | 19 | 1018.6 |
| 20260510024543 | 71 | 314 | 8.7 | 14.8 | 0.00 | 0.00 | 0.00 | 19 | 1018.4 |
| 20260510024033 | 71 | 311 | 8.7 | 14.8 | 0.00 | 0.00 | 0.00 | 19 | 1018.4 |
| 20260510023540 | 71 | 314 | 8.7 | 13.9 | 0.00 | 0.00 | 0.00 | 19 | 1018.4 |
| 20260510023046 | 71 | 348 | 7.8 | 14.8 | 0.00 | 0.00 | 0.00 | 19 | 1018.3 |
| 20260510022554 | 71 | 334 | 7.8 | 16.5 | 0.00 | 0.00 | 0.00 | 19 | 1018.2 |
| 20260510022045 | 71 | 326 | 10.4 | 17.4 | 0.00 | 0.00 | 0.00 | 19 | 1018.0 |
| 20260510021553 | 70 | 350 | 11.3 | 17.4 | 0.00 | 0.00 | 0.00 | 20 | 1017.9 |
| 20260510021058 | 70 | 5 | 7.0 | 12.2 | 0.00 | 0.00 | 0.00 | 20 | 1017.9 |
| 20260510020501 | 71 | 10 | 6.1 | 15.6 | 0.00 | 0.00 | 0.00 | 20 | 1017.8 |
| 20260510020002 | 71 | 345 | 7.0 | 15.6 | 0.00 | 0.00 | 0.00 | 20 | 1017.8 |
| 20260510015510 | 71 | 334 | 7.8 | 15.6 | 0.00 | 0.00 | 0.00 | 20 | 1017.8 |
| 20260510015106 | 71 | 339 | 7.0 | 14.8 | 0.00 | 0.00 | 0.00 | 20 | 1017.7 |
| 20260510014508 | 72 | 13 | 7.8 | 13.9 | 0.00 | 0.00 | 0.00 | 19 | 1017.6 |
| 20260510014102 | 72 | 347 | 7.8 | 22.6 | 0.00 | 0.00 | 0.00 | 19 | 1017.5 |
| 20260510013504 | 73 | 27 | 13.0 | 22.6 | 0.00 | 0.00 | 0.00 | 19 | 1017.5 |
| 20260510013008 | 73 | 360 | 11.3 | 16.5 | 0.00 | 0.00 | 0.00 | 18 | 1017.4 |
| 20260510012604 | 74 | 342 | 9.6 | 15.6 | 0.00 | 0.00 | 0.00 | 18 | 1017.3 |
| 20260510012005 | 74 | 329 | 8.7 | 16.5 | 0.00 | 0.00 | 0.00 | 17 | 1017.1 |
| 20260510011601 | 74 | 319 | 8.7 | 16.5 | 0.00 | 0.00 | 0.00 | 17 | 1017.0 |
| 20260510011051 | 74 | 307 | 7.8 | 14.8 | 0.00 | 0.00 | 0.00 | 17 | 1016.9 |
| 20260510010559 | 74 | 360 | 8.7 | 14.8 | 0.00 | 0.00 | 0.00 | 18 | 1016.9 |
| 20260510010050 | 74 | 321 | 7.0 | 13.0 | 0.00 | 0.00 | 0.00 | 19 | 1016.9 |
| 20260510005558 | 74 | 360 | 7.8 | 13.9 | 0.00 | 0.00 | 0.00 | 19 | 1016.9 |
| 20260510005048 | 75 | 360 | 8.7 | 17.4 | 0.00 | 0.00 | 0.00 | 19 | 1016.9 |
| 20260510004538 | 75 | 329 | 9.6 | 17.4 | 0.00 | 0.00 | 0.00 | 18 | 1016.9 |
| 20260510004046 | 76 | 15 | 12.2 | 17.4 | 0.00 | 0.00 | 0.00 | 18 | 1016.8 |
| 20260510003537 | 76 | 5 | 8.7 | 17.4 | 0.00 | 0.00 | 0.00 | 18 | 1016.8 |
| 20260510003056 | 76 | 338 | 12.2 | 19.1 | 0.00 | 0.00 | 0.00 | 18 | 1017.2 |
| 20260510002550 | 76 | 36 | 10.4 | 19.1 | 0.00 | 0.00 | 0.00 | 18 | 1017.0 |
| 20260510002058 | 75 | 329 | 11.3 | 17.4 | 0.00 | 0.00 | 0.00 | 19 | 1017.1 |
| 20260510001549 | 75 | 331 | 11.3 | 17.4 | 0.00 | 0.00 | 0.00 | 19 | 1016.9 |
| 20260510001057 | 75 | 338 | 9.6 | 18.2 | 0.00 | 0.00 | 0.00 | 19 | 1016.7 |
| 20260510000605 | 75 | 25 | 10.4 | 18.2 | 0.00 | 0.00 | 0.00 | 19 | 1016.8 |
| 20260510000008 | 74 | 349 | 8.7 | 18.2 | 0.00 | 0.00 | 0.00 | 20 | 1016.9 |
| 20260509235601 | 74 | 340 | 10.4 | 20.9 | 0.00 | 0.00 | 0.00 | 20 | 1016.8 |
| 20260509235003 | 75 | 22 | 13.9 | 22.6 | 0.00 | 0.00 | 0.00 | 20 | 1017.0 |
| 20260509234614 | 75 | 355 | 13.9 | 22.6 | 0.00 | 0.00 | 0.00 | 19 | 1016.7 |
| 20260509234105 | 76 | 336 | 13.0 | 19.1 | 0.00 | 0.00 | 0.00 | 19 | 1016.8 |
| 20260509233558 | 76 | 5 | 12.2 | 20.9 | 0.00 | 0.00 | 0.00 | 18 | 1016.8 |
| 20260509233104 | 77 | 33 | 13.0 | 20.9 | 0.00 | 0.00 | 0.00 | 17 | 1016.8 |
| 20260509232505 | 78 | 329 | 14.8 | 20.9 | 0.00 | 0.00 | 0.00 | 17 | 1016.8 |
| 20260509232017 | 78 | 338 | 11.3 | 18.2 | 0.00 | 0.00 | 0.00 | 16 | 1016.7 |
| 20260509231519 | 79 | 348 | 8.7 | 22.6 | 0.00 | 0.00 | 0.00 | 12 | 1016.5 |
| 20260509231024 | 79 | 348 | 13.9 | 23.5 | 0.00 | 0.00 | 0.00 | 12 | 1016.6 |
| 20260509230532 | 80 | 296 | 8.7 | 24.3 | 0.00 | 0.00 | 0.00 | 12 | 1016.5 |
| 20260509230046 | 80 | 297 | 9.6 | 24.3 | 0.00 | 0.00 | 0.00 | 12 | 1016.6 |